Weather in Balakliia

Ukraine / Kharkiv Region     49°27′05″N   36°50′32″E
temp.,
°C
wind,
m/s
gust,
m/s
humid.,
%
clouds,
%
prec.,
mm/h
press.,
hPa
HPBL,
m
4 december, sat
sat423:00+9sw81385100 0.0 1007907
02:00+4nw5991100 1.6 1010491
05:00+3nw4690100 1.1 1012623
08:00+3nw4677100 1.1 1015521
11:00+3nw3457100 0.0 1015596
14:00+3nnw2348100 0.0 1014567
17:00+2n2362100 0.0 1015162
20:000ne357837 0.0 101597
5 december, sun
sun523:00−1ene2480100 0.0 101680
02:00−1ene3581100 0.0 1016128
05:00−2ene368391 0.0 1015159
08:00−2ene388391 0.0 1016244
11:00+2e46635 0.0 1015486
14:00+3e356219 0.0 1014547
17:000e3578100 0.0 101598
20:00+1e2580100 0.0 1015178
6 december, mon
mon623:00+1ese2388100 0.0 1015104
02:00+1se2393100 0.0 101671
05:00+1sse2295100 0.0 101525
08:00+1se2394100 0.0 1016108
11:00+2se2591100 0.1 1016191
14:00+3se3688100 0.1 1016226
17:00+4ese4989100 0.3 1015245
20:00+4se61295100 3.1 1014416
7 december, tue
tue723:00+7sse61295100 0.4 1013412
02:00+7sse51392100 0.7 1012335
05:00+9s61387100 0.6 1012386
08:00+8s51292100 0.8 1012281
11:00+10s41078100 0.3 1012343
14:00+10se3873100 0.3 1011243
17:00+8ese4977100 0.0 1010169
20:00+7se3778100 0.0 1009139
8 december, wed
wed823:00+6ese4975100 0.0 1009180
02:00+5ese3879100 0.0 1009183
05:00+4e4985100 0.0 1008201
08:00+4ese41081100 0.0 1008285
11:00+6ese5778100 0.0 1008334
14:00+7ese4879100 0.0 1006358
17:00+5ese3790100 0.0 1007181
20:00+5e3594100 0.0 1008120